Temperature
17 17 17 17 17 17 17 17 17 17 18 18 18 18 18 18 18 18 18 18 18 18 18 18 18 18 18 18 18 18 18 18 18 18 18 18 18 18 18 18 18 18 18
17 17 17 17 17 17 17 17 17 17 17 18 18 18 18 18 18 18 18 18 18 18 18 18 18 18 18 18 18 18 18 18 18 18 18 18 18 18 18 18 18 18 18
17 17 17 17 17 17 17 17 17 17 17 17 17 18 18 18 18 18 18 18 18 18 18 18 18 18 18 18 18 18 18 18 18 18 18 18 18 18 18 18 18 18 18
17 17 17 17 17 17 17 17 17 17 17 17 17 17 17 17 18 18 18 18 18 18 18 18 18 18 18 18 18 18 18 18 18 18 18 18 17 17 17 17 17 18 18
17 17 17 17 17 17 17 17 17 17 17 17 17 17 17 17 17 17 17 17 17 17 17 17 17 17 18 17 17 17 17 17 17 17 17 17 17 17 17 17 17 17 17
17 17 17 17 17 17 17 17 17 17 17 17 17 17 17 17 17 17 17 17 17 17 17 17 17 17 17 17 17 17 17 17 17 17 17 17 17 17 17 17 17 17 17
17 17 17 17 17 17 17 17 17 17 17 17 17 17 17 17 17 17 17 17 17 17 17 17 17 17 17 17 17 17 17 17 17 17 17 17 17 17 17 17 17 17 17
17 17 17 17 17 17 17 17 17 17 17 17 17 17 17 17 17 17 17 17 17 17 17 17 17 17 17 17 17 17 17 17 17 17 17 17 17 17 17 17 17 17 17
17 17 17 17 17 17 17 17 17 17 17 17 17 17 17 17 17 17 17 17 17 17 17 17 17 17 17 17 17 17 16 16 17 17 16 16 16 16 16 16 17 17 17
17 17 17 17 17 17 16 16 16 16 17 17 17 17 17 17 17 17 17 17 17 16 16 16 16 16 16 16 16 16 16 16 16 16 16 16 16 16 16 16 16 16 16
17 17 17 17 17 17 16 16 16 16 16 16 16 16 17 16 17 16 16 16 16 16 16 16 16 16 16 16 16 16 16 16 16 16 16 16 16 16 16 16 16 16 16
17 17 17 17 17 17 16 16 16 16 16 16 16 16 16 16 16 16 16 16 16 16 16 16 16 16 16 16 16 16 16 16 16 16 16 16 16 16 16 16 16 16 16
17 17 17 17 17 17 17 17 16 16 16 16 16 16 16 16 16 16 16 16 16 16 16 16 16 16 16 16 16 16 16 16 16 16 15 15 16 16 15 16 16 16 16
17 17 17 17 17 17 17 16 16 16 16 16 16 16 16 16 16 16 16 16 16 16 16 16 16 16 16 16 16 16 16 15 15 16 15 15 15 15 15 15 15 15 15
17 17 17 17 17 17 17 16 16 16 16 16 16 16 16 16 16 16 16 16 16 16 16 15 15 15 15 15 15 15 15 15 15 15 15 15 15 15 15 15 15 15 15
18 18 17 17 17 17 17 16 16 16 16 16 16 16 16 16 16 16 16 16 16 15 15 15 15 15 15 15 15 15 15 15 15 15 15 15 15 15 15 15 15 15 15
18 18 17 17 17 17 17 16 16 16 16 16 16 16 16 16 16 16 15 15 15 15 15 15 15 15 15 15 15 15 15 15 15 15 15 15 15 15 15 15 14 14 14
18 18 17 17 17 17 17 16 16 16 16 16 16 16 15 15 15 15 15 15 15 15 15 15 15 15 15 15 15 14 14 14 14 14 15 15 15 15 15 15 14 14 14
18 18 18 17 17 17 17 16 16 16 16 16 16 15 15 15 15 15 15 15 15 15 15 15 15 15 15 14 14 14 14 14 14 14 14 14 14 14 14 14 14 14 14
18 18 18 17 17 17 17 17 16 16 16 16 15 15 15 15 15 15 15 15 15 15 15 14 14 14 14 14 14 14 14 14 14 14 14 14 14 14 14 14 14 14 14
18 18 18 18 17 17 17 17 16 16 16 16 15 15 15 15 15 15 15 15 15 15 14 14 14 14 14 14 14 14 14 14 14 14 14 14 14 14 14 14 14 14 14
18 18 18 18 17 17 17 17 16 16 16 16 15 15 15 15 15 15 15 14 14 14 14 14 14 14 14 14 14 14 13 13 14 13 13 13 13 13 13 13 13 13 13
18 18 18 18 17 17 17 16 16 16 16 15 15 15 15 15 15 15 14 14 14 14 14 14 14 14 14 14 13 13 13 13 13 13 13 13 13 13 13 13 13 13 13
19 18 18 18 17 17 17 16 16 16 16 16 15 15 15 15 14 14 14 14 14 14 14 14 14 14 14 14 13 13 13 13 13 13 13 13 13 13 13 13 13 13 13
18 18 18 18 17 17 17 16 16 16 16 15 15 15 15 15 14 14 14 14 14 14 14 14 14 14 13 13 13 13 13 13 13 13 13 13 13 13 13 13 13 13 13
18 18 18 17 17 17 17 16 16 16 16 16 15 15 15 15 14 14 14 14 14 14 14 14 14 13 13 13 13 13 13 13 13 13 13 13 13 13 13 13 13 13 12
Wind_Speed
2 3 1 2 3 4 4 5 6 7 7 7 7 8 8 9 9 9 10 10 11 11 11 11 11 11 12 12 12 11 12 12 11 11 11 11 11 11 10 10 9 8 9
2 1 1 3 4 4 5 5 6 7 6 7 7 7 8 9 9 9 9 10 11 11 10 10 11 11 12 12 11 11 11 12 11 11 10 10 10 10 9 9 8 8 9
2 1 2 3 4 5 5 6 6 6 7 7 7 7 8 8 9 9 9 10 10 10 10 11 11 11 11 11 11 11 11 11 11 11 10 8 8 9 9 9 9 8 9
2 2 2 4 5 5 5 5 5 6 7 7 8 8 8 8 9 9 9 10 10 10 11 11 11 11 11 11 11 12 12 11 11 10 8 7 7 8 8 8 8 8 8
3 2 2 4 5 5 5 5 5 5 6 7 7 8 8 9 9 9 9 9 10 10 11 10 10 11 11 11 12 12 11 11 11 10 8 8 7 7 8 7 7 7 7
2 2 2 4 5 5 5 4 4 5 6 7 7 8 8 8 9 9 10 10 10 11 10 10 11 11 11 11 11 11 11 11 11 9 8 7 7 7 7 7 6 6 6
2 1 2 4 5 5 5 5 6 6 7 7 7 7 7 8 9 9 10 10 10 10 10 10 11 11 11 11 11 11 11 11 10 8 7 6 7 8 8 7 7 7 6
3 2 3 4 4 5 6 6 7 7 8 7 7 7 8 8 9 9 9 9 9 9 10 10 11 11 11 11 11 11 11 10 9 8 7 6 7 8 8 8 8 8 7
3 3 3 4 4 5 5 7 7 8 8 8 8 8 8 8 8 8 9 8 8 9 9 10 10 11 11 11 11 11 11 10 8 7 7 6 8 8 8 8 8 8 7
2 2 2 4 5 5 5 6 7 8 8 8 8 8 9 9 8 8 8 8 8 8 9 10 10 11 11 11 12 12 11 10 9 7 6 7 9 9 9 9 9 9 8
1 1 1 2 3 4 4 5 6 7 7 8 8 8 9 8 7 7 8 8 8 9 9 10 11 11 11 12 12 12 11 9 8 7 6 8 9 9 9 10 10 10 9
2 1 0 1 1 3 3 5 6 6 7 7 7 7 7 7 7 7 8 9 9 10 10 11 11 11 10 9 10 11 9 9 8 7 7 9 9 9 9 10 10 10 10
3 2 1 1 1 2 2 3 4 5 5 6 6 6 7 7 7 7 7 7 8 9 9 10 10 9 9 8 8 9 9 9 8 8 9 10 9 9 9 10 10 10 10
3 2 2 2 2 2 2 3 3 3 3 4 4 5 6 5 5 5 5 6 7 7 7 8 7 8 9 9 9 8 9 8 8 8 10 11 11 10 10 11 11 10 11
3 3 2 3 3 2 2 2 3 2 2 3 4 4 5 4 3 4 4 5 6 6 6 6 6 6 6 7 8 8 7 8 8 9 9 12 11 11 10 11 11 10 10
4 4 3 4 4 3 2 2 2 2 3 3 4 4 5 5 4 4 4 4 5 6 6 6 6 5 5 5 6 7 7 7 8 8 9 10 11 11 12 12 11 11 11
5 4 4 4 4 4 3 2 3 3 4 3 3 4 5 5 5 4 3 3 4 6 7 7 6 6 5 5 5 6 6 6 7 8 8 8 9 10 11 11 11 11 11
5 4 4 4 5 4 3 3 3 3 4 3 3 4 5 5 5 4 3 3 5 6 5 4 4 4 4 4 4 4 4 5 6 6 7 8 8 8 9 11 11 10 10
6 6 5 4 5 5 4 4 4 3 3 2 3 3 4 4 5 5 3 3 5 5 4 4 4 3 4 4 4 4 4 4 4 5 6 7 7 8 8 9 10 10 10
5 5 5 5 5 5 4 4 3 3 2 2 2 2 3 4 5 5 4 4 5 4 3 4 4 4 3 3 4 4 4 3 4 4 4 5 7 7 8 8 8 9 10
5 6 6 6 5 5 3 3 2 1 1 1 0 2 3 4 5 5 3 3 4 4 4 4 4 4 3 2 3 3 4 4 4 4 4 4 5 6 7 8 8 7 7
6 6 6 7 6 6 4 3 2 2 1 1 0 1 2 4 5 5 4 3 3 4 4 4 4 3 2 2 2 2 2 4 4 4 3 3 4 5 5 6 6 7 7
7 8 7 7 6 6 4 3 3 3 2 1 0 1 1 3 4 5 5 4 4 4 4 4 4 4 3 1 1 3 2 1 1 3 3 3 3 3 3 4 5 5 5
8 7 6 6 6 6 6 5 5 4 3 3 2 1 1 2 3 4 5 5 4 3 4 4 4 3 4 2 1 1 1 3 2 1 2 2 3 2 2 2 3 4 4
5 5 5 5 5 5 6 6 6 4 3 1 1 1 1 1 2 4 5 4 4 4 4 4 4 3 3 3 3 2 2 2 2 2 1 2 2 2 2 1 1 2 3
2 3 4 5 4 4 6 6 6 6 4 3 2 3 2 1 1 3 4 4 4 4 4 4 4 4 4 3 3 3 3 2 2 3 2 2 2 2 2 1 1 1 1
Wind_Direction
262 268 273 89 85 85 88 83 82 81 81 82 87 86 85 85 86 88 90 90 88 87 86 85 87 87 90 90 90 92 96 97 99 98 97 97 97 100 102 103 103 102 104
192 229 111 89 79 79 87 88 85 82 83 86 89 88 87 87 88 88 91 89 88 87 86 86 88 86 88 89 91 93 92 92 93 92 91 90 95 98 100 103 109 110 109
115 94 93 86 78 72 80 85 86 86 86 87 89 88 89 90 88 89 92 93 91 89 86 85 88 89 89 89 90 91 91 91 90 87 82 74 81 92 98 100 106 108 111
117 81 83 87 81 77 77 84 84 87 87 86 90 90 89 89 90 91 95 97 95 91 87 85 87 89 88 88 87 89 88 87 86 83 76 73 79 87 90 94 98 101 105
94 74 84 92 87 82 76 79 83 88 91 89 90 93 90 90 90 88 92 95 95 92 87 84 86 89 88 86 86 87 88 85 82 79 74 71 77 85 88 92 95 98 103
94 73 88 92 88 81 72 64 79 98 102 96 93 94 91 90 89 88 89 92 94 92 88 86 85 87 88 87 87 87 89 84 78 74 71 71 74 80 84 89 92 95 97
115 71 79 93 83 78 67 64 83 97 101 96 90 91 89 88 88 88 89 89 91 90 87 88 86 84 84 84 84 83 85 81 77 74 69 69 73 78 80 81 87 93 95
121 88 70 78 76 72 65 65 77 89 92 90 86 84 83 83 83 83 86 87 88 90 89 89 88 85 81 82 82 81 81 80 76 74 68 63 71 74 76 75 76 82 88
90 77 56 48 52 59 65 68 76 81 82 84 81 78 78 79 79 80 83 88 91 93 91 88 89 84 79 78 78 78 76 75 69 66 69 64 71 75 76 74 75 79 84
74 58 45 42 45 45 51 65 76 78 77 77 74 75 75 73 70 70 73 82 91 93 93 89 88 83 80 78 75 73 72 67 61 58 56 63 69 71 73 73 74 76 81
103 30 37 39 41 51 60 67 66 67 64 62 60 65 65 61 56 58 69 79 86 93 94 92 89 83 78 74 73 71 66 61 59 53 55 64 66 68 71 73 74 74 76
197 219 180 65 50 58 67 68 64 63 60 60 58 60 63 63 57 60 65 73 80 87 87 87 86 80 73 67 67 66 61 59 55 49 56 65 66 66 68 71 73 71 70
201 200 183 168 108 98 74 76 71 66 58 56 56 63 70 66 59 58 57 58 68 75 75 76 74 69 69 67 64 60 58 57 52 48 55 62 64 67 70 70 70 72 71
176 200 190 160 138 130 110 89 88 79 67 59 59 69 80 73 62 57 58 61 68 76 80 78 78 73 70 68 66 62 57 54 49 49 53 60 63 65 69 70 67 70 71
180 198 190 159 150 143 119 101 95 94 96 90 84 84 94 90 77 70 64 67 74 81 86 88 88 82 74 67 64 65 60 54 51 50 48 55 59 61 65 66 65 67 68
193 191 173 155 150 136 133 125 114 112 110 101 93 99 106 105 100 92 79 74 76 87 91 92 90 84 74 70 61 57 56 55 53 51 50 48 51 56 59 61 62 63 66
190 177 169 161 140 137 139 134 116 115 112 98 99 110 112 112 110 105 96 87 88 94 95 93 85 81 77 69 58 50 50 48 53 50 49 46 44 49 56 59 57 58 58
171 165 172 161 143 141 133 120 109 108 111 113 111 113 114 115 117 112 106 102 105 101 96 94 88 87 78 71 62 47 43 42 46 48 50 47 44 42 47 53 53 52 52
175 168 166 154 150 142 127 112 104 96 98 111 116 117 125 125 127 122 115 110 113 103 94 97 80 89 93 83 73 55 39 36 34 45 46 44 45 45 44 47 48 48 50
173 168 165 156 149 132 114 96 82 78 71 75 108 138 142 137 135 128 122 116 116 105 93 93 95 78 82 87 78 57 37 30 34 35 36 41 43 44 45 46 43 39 42
169 170 175 164 160 145 134 132 128 138 118 73 91 130 148 146 142 138 130 124 123 124 125 118 107 96 79 78 74 44 24 31 37 30 32 42 41 42 46 43 42 39 32
186 187 187 180 173 175 169 155 145 136 132 133 27 118 161 160 159 156 145 146 141 129 126 129 122 112 91 77 103 89 26 3 10 22 24 37 33 39 40 37 39 36 31
197 197 194 189 183 182 162 125 92 76 60 56 18 229 210 177 166 161 157 148 149 146 155 158 148 140 146 85 85 131 134 208 322 350 12 25 23 30 25 27 31 27 27
208 199 189 184 183 180 165 163 163 169 183 209 205 211 216 189 181 173 165 159 159 155 161 172 161 151 147 154 104 71 133 153 146 336 337 355 13 19 3 13 16 14 20
201 190 185 174 180 180 179 178 175 179 189 183 172 190 209 217 192 182 173 165 169 170 174 173 161 160 159 163 163 149 110 79 114 154 262 317 344 334 336 339 351 357 9
167 169 167 166 183 184 182 181 184 188 184 176 189 199 210 220 213 193 181 178 179 177 182 183 175 172 175 171 170 165 163 165 177 168 198 245 281 294 309 310 305 309 331
Height
1517 1516 1516 1515 1515 1515 1515 1515 1515 1515 1516 1516 1516 1516 1516 1516 1517 1517 1517 1517 1518 1518 1518 1518 1519 1519 1520 1520 1521 1522 1523 1523 1524 1525 1526 1527 1528 1529 1529 1530 1531 1531 1532
1517 1517 1516 1516 1516 1516 1516 1516 1516 1516 1516 1516 1517 1517 1518 1518 1518 1518 1518 1519 1519 1519 1520 1520 1521 1521 1522 1522 1523 1523 1524 1525 1526 1527 1527 1528 1529 1530 1531 1531 1532 1532 1533
1518 1517 1517 1517 1517 1516 1516 1517 1517 1517 1517 1517 1518 1518 1519 1519 1519 1519 1520 1520 1520 1521 1521 1522 1522 1523 1523 1524 1524 1525 1526 1526 1527 1528 1529 1530 1531 1531 1532 1533 1533 1534 1534
1519 1518 1518 1518 1517 1517 1517 1517 1517 1517 1518 1518 1519 1519 1520 1520 1521 1521 1521 1521 1522 1522 1523 1523 1524 1525 1525 1526 1526 1527 1527 1528 1529 1530 1530 1531 1532 1533 1533 1534 1534 1535 1535
1520 1519 1519 1519 1519 1518 1518 1517 1517 1517 1518 1519 1520 1520 1521 1522 1522 1522 1523 1523 1523 1524 1524 1525 1526 1526 1527 1527 1528 1529 1529 1530 1531 1531 1532 1533 1533 1534 1534 1535 1535 1536 1536
1521 1521 1520 1520 1520 1519 1518 1517 1515 1515 1518 1520 1521 1521 1522 1523 1523 1524 1524 1525 1525 1525 1526 1526 1527 1528 1528 1529 1530 1530 1531 1532 1532 1533 1534 1534 1535 1535 1535 1536 1536 1537 1537
1522 1522 1522 1522 1521 1521 1519 1517 1516 1516 1519 1521 1522 1523 1524 1524 1525 1525 1526 1526 1526 1527 1527 1528 1529 1529 1530 1530 1531 1532 1533 1533 1534 1534 1535 1535 1536 1536 1536 1536 1537 1537 1537
1524 1524 1523 1523 1523 1522 1521 1519 1519 1520 1521 1523 1524 1524 1525 1526 1526 1527 1527 1528 1528 1529 1529 1529 1530 1531 1531 1532 1533 1533 1534 1534 1535 1535 1536 1536 1537 1537 1537 1537 1537 1537 1538
1525 1525 1525 1525 1524 1524 1523 1523 1523 1523 1524 1525 1526 1526 1527 1527 1528 1528 1529 1529 1530 1530 1530 1531 1531 1532 1533 1533 1534 1535 1535 1536 1536 1537 1537 1537 1538 1538 1538 1538 1538 1538 1538
1527 1527 1527 1527 1526 1526 1526 1525 1525 1526 1526 1527 1528 1528 1529 1529 1529 1530 1530 1531 1531 1531 1531 1532 1532 1533 1534 1535 1535 1536 1537 1537 1538 1538 1538 1539 1539 1539 1539 1538 1538 1538 1538
1528 1528 1528 1528 1528 1528 1528 1528 1528 1528 1528 1529 1529 1530 1530 1531 1531 1531 1532 1532 1532 1532 1533 1533 1534 1535 1535 1536 1537 1538 1538 1539 1539 1539 1540 1540 1540 1540 1540 1539 1539 1539 1539
1529 1529 1529 1529 1529 1529 1530 1530 1530 1530 1530 1531 1531 1531 1532 1532 1532 1532 1533 1533 1533 1534 1534 1534 1535 1536 1537 1538 1538 1539 1539 1540 1540 1541 1541 1541 1541 1541 1541 1540 1540 1540 1540
1529 1530 1530 1530 1531 1531 1531 1531 1532 1532 1532 1532 1533 1533 1533 1533 1533 1534 1534 1534 1535 1535 1535 1536 1537 1537 1538 1539 1540 1540 1541 1541 1542 1542 1542 1542 1542 1542 1542 1541 1541 1541 1541
1530 1530 1531 1531 1532 1532 1532 1533 1533 1533 1534 1534 1534 1534 1535 1535 1535 1535 1535 1536 1536 1537 1537 1538 1539 1539 1540 1541 1541 1542 1542 1543 1543 1543 1544 1544 1543 1543 1543 1543 1542 1542 1542
1530 1531 1531 1532 1532 1533 1533 1534 1534 1534 1535 1535 1535 1536 1536 1536 1536 1536 1536 1537 1537 1538 1539 1539 1540 1541 1541 1542 1542 1543 1544 1544 1544 1545 1545 1545 1545 1544 1544 1544 1543 1543 1543
1531 1531 1532 1532 1533 1533 1534 1534 1535 1535 1536 1536 1537 1537 1537 1537 1537 1537 1538 1538 1538 1539 1540 1541 1541 1542 1543 1543 1544 1544 1545 1545 1545 1546 1546 1546 1546 1546 1545 1545 1545 1545 1544
1531 1532 1532 1533 1534 1534 1534 1535 1535 1536 1536 1537 1537 1538 1538 1538 1538 1539 1539 1539 1540 1540 1541 1541 1542 1543 1544 1544 1545 1545 1546 1546 1546 1547 1547 1547 1547 1547 1546 1546 1546 1546 1545
1531 1532 1533 1533 1534 1534 1535 1535 1536 1536 1537 1537 1538 1538 1539 1539 1539 1540 1540 1540 1541 1541 1542 1542 1543 1544 1544 1545 1546 1546 1546 1547 1547 1548 1548 1548 1548 1548 1547 1547 1547 1546 1546
1530 1531 1532 1533 1534 1535 1535 1536 1536 1537 1537 1538 1538 1539 1539 1540 1540 1540 1540 1541 1541 1542 1542 1543 1543 1544 1545 1545 1546 1547 1547 1547 1548 1548 1548 1548 1548 1548 1548 1548 1547 1547 1546
1530 1531 1532 1533 1534 1535 1535 1536 1536 1537 1537 1538 1538 1539 1539 1539 1540 1540 1541 1541 1542 1542 1543 1543 1544 1544 1545 1545 1546 1547 1547 1548 1548 1548 1548 1549 1548 1548 1548 1548 1548 1547 1547
1528 1530 1531 1532 1533 1534 1535 1535 1535 1536 1537 1537 1538 1538 1539 1539 1540 1540 1540 1541 1541 1542 1543 1543 1544 1544 1545 1545 1546 1547 1548 1548 1548 1549 1549 1549 1549 1549 1549 1548 1548 1548 1547
1526 1528 1530 1531 1532 1533 1534 1535 1535 1536 1536 1537 1537 1538 1538 1538 1539 1539 1540 1540 1541 1542 1542 1543 1544 1544 1545 1546 1546 1547 1548 1549 1549 1549 1549 1549 1549 1549 1549 1548 1548 1548 1547
1524 1526 1528 1529 1530 1532 1533 1534 1535 1535 1535 1536 1536 1537 1537 1537 1538 1539 1539 1540 1540 1541 1542 1542 1543 1544 1545 1546 1546 1547 1547 1547 1548 1549 1549 1549 1549 1549 1548 1548 1548 1547 1547
1521 1524 1526 1527 1529 1530 1531 1532 1533 1533 1534 1534 1535 1535 1536 1536 1537 1537 1538 1539 1540 1540 1541 1542 1543 1543 1544 1545 1546 1546 1547 1547 1548 1548 1548 1548 1548 1548 1548 1548 1547 1547 1547
1519 1521 1523 1525 1527 1528 1529 1531 1532 1532 1533 1533 1534 1534 1535 1535 1536 1536 1537 1538 1538 1539 1540 1541 1542 1542 1543 1544 1545 1545 1546 1546 1547 1547 1547 1547 1547 1547 1547 1547 1546 1546 1546
1517 1519 1521 1522 1524 1526 1527 1528 1529 1530 1531 1532 1532 1532 1533 1534 1534 1535 1536 1536 1537 1538 1539 1540 1540 1541 1542 1543 1544 1544 1545 1545 1545 1546 1545 1545 1545 1545 1545 1545 1545 1545 1545